QPF
0.01 0.01 0.01 0.01 0.00 0.00 0.01 0.02 0.02 0.01 0.00 0.00 0.01 0.01 0.01 0.01 0.01 0.02 0.03 0.05 0.05 0.04 0.06 0.08 0.09 0.08 0.08 0.07 0.06 0.04 0.05 0.05 0.05 0.04 0.03 0.03 0.03 0.01 0.01 0.01 0.01 0.01 0.01
0.01 0.02 0.01 0.01 0.00 0.00 0.01 0.01 0.01 0.01 0.00 0.00 0.00 0.00 0.01 0.01 0.01 0.01 0.01 0.03 0.05 0.05 0.06 0.10 0.12 0.11 0.11 0.11 0.09 0.08 0.07 0.06 0.05 0.03 0.03 0.04 0.05 0.04 0.02 0.02 0.01 0.00 0.01
0.01 0.02 0.01 0.01 0.01 0.01 0.01 0.01 0.01 0.01 0.01 0.01 0.01 0.01 0.01 0.00 0.01 0.01 0.01 0.01 0.03 0.05 0.06 0.10 0.11 0.13 0.13 0.14 0.12 0.11 0.10 0.07 0.05 0.04 0.04 0.05 0.06 0.06 0.05 0.03 0.02 0.01 0.01
0.02 0.02 0.01 0.01 0.00 0.00 0.00 0.00 0.01 0.01 0.01 0.01 0.00 0.00 0.01 0.01 0.01 0.01 0.01 0.01 0.02 0.02 0.04 0.08 0.10 0.10 0.13 0.14 0.16 0.16 0.14 0.11 0.07 0.05 0.05 0.05 0.06 0.06 0.06 0.04 0.03 0.02 0.01
0.02 0.01 0.02 0.01 0.00 0.01 0.00 0.00 0.01 0.01 0.00 0.00 0.00 0.00 0.01 0.01 0.01 0.01 0.01 0.01 0.01 0.01 0.02 0.04 0.06 0.07 0.09 0.13 0.18 0.19 0.18 0.13 0.10 0.08 0.08 0.08 0.08 0.07 0.06 0.06 0.05 0.03 0.02
0.02 0.01 0.01 0.01 0.00 0.00 0.00 0.00 0.01 0.00 0.00 0.00 0.00 0.00 0.00 0.00 0.01 0.01 0.01 0.01 0.01 0.01 0.01 0.01 0.02 0.03 0.08 0.12 0.15 0.18 0.17 0.14 0.12 0.11 0.12 0.11 0.10 0.08 0.06 0.05 0.05 0.05 0.03
0.01 0.01 0.01 0.00 0.00 0.00 0.00 0.00 0.00 0.00 0.00 0.00 0.00 0.00 0.00 0.00 0.01 0.01 0.01 0.01 0.01 0.02 0.02 0.01 0.01 0.01 0.03 0.05 0.07 0.09 0.11 0.13 0.14 0.13 0.13 0.13 0.12 0.09 0.07 0.05 0.05 0.04 0.04
0.01 0.01 0.00 0.00 0.00 0.00 0.00 0.00 0.00 0.00 0.00 0.00 0.00 0.00 0.00 0.00 0.00 0.00 0.01 0.01 0.01 0.01 0.02 0.02 0.02 0.01 0.02 0.02 0.02 0.05 0.07 0.10 0.13 0.15 0.14 0.13 0.11 0.09 0.08 0.07 0.06 0.05 0.04
0.01 0.01 0.00 0.00 0.00 0.00 0.00 0.00 0.00 0.00 0.00 0.00 0.00 0.00 0.00 0.00 0.00 0.00 0.00 0.00 0.00 0.00 0.01 0.02 0.02 0.02 0.02 0.01 0.01 0.03 0.05 0.06 0.09 0.11 0.14 0.12 0.10 0.09 0.08 0.08 0.08 0.07 0.06
0.01 0.01 0.01 0.00 0.00 0.00 0.00 0.00 0.00 0.00 0.00 0.00 0.00 0.00 0.00 0.00 0.00 0.00 0.00 0.00 0.00 0.00 0.00 0.00 0.00 0.01 0.01 0.01 0.01 0.02 0.03 0.04 0.05 0.08 0.11 0.10 0.09 0.07 0.07 0.09 0.10 0.09 0.07
0.00 0.00 0.00 0.00 0.00 0.00 0.00 0.00 0.00 0.00 0.00 0.00 0.00 0.00 0.00 0.00 0.00 0.00 0.00 0.00 0.00 0.00 0.00 0.00 0.00 0.00 0.00 0.00 0.01 0.02 0.02 0.02 0.02 0.03 0.05 0.07 0.07 0.07 0.06 0.07 0.09 0.11 0.10
0.00 0.00 0.00 0.00 0.00 0.00 0.00 0.00 0.00 0.00 0.00 0.00 0.00 0.00 0.00 0.00 0.00 0.00 0.00 0.00 0.00 0.00 0.00 0.00 0.00 0.00 0.00 0.00 0.00 0.00 0.00 0.01 0.01 0.01 0.01 0.02 0.03 0.04 0.05 0.06 0.08 0.11 0.12
0.00 0.00 0.00 0.00 0.00 0.00 0.00 0.00 0.00 0.00 0.00 0.00 0.00 0.00 0.00 0.00 0.00 0.00 0.00 0.00 0.00 0.00 0.00 0.00 0.00 0.00 0.00 0.00 0.00 0.00 0.00 0.00 0.00 0.00 0.01 0.01 0.01 0.02 0.02 0.03 0.04 0.06 0.09
0.00 0.00 0.00 0.00 0.00 0.00 0.00 0.00 0.00 0.00 0.00 0.00 0.00 0.00 0.00 0.00 0.00 0.00 0.00 0.00 0.00 0.00 0.00 0.00 0.00 0.00 0.00 0.00 0.00 0.00 0.00 0.00 0.00 0.00 0.00 0.00 0.00 0.00 0.00 0.00 0.01 0.02 0.03
0.00 0.00 0.00 0.00 0.00 0.00 0.00 0.00 0.00 0.00 0.00 0.00 0.00 0.00 0.00 0.00 0.00 0.00 0.00 0.00 0.00 0.00 0.00 0.00 0.00 0.00 0.00 0.00 0.00 0.00 0.00 0.00 0.00 0.00 0.00 0.00 0.00 0.00 0.00 0.00 0.00 0.00 0.00
0.01 0.01 0.01 0.00 0.00 0.00 0.00 0.00 0.00 0.00 0.00 0.00 0.00 0.00 0.00 0.00 0.00 0.00 0.00 0.00 0.00 0.00 0.00 0.00 0.00 0.00 0.00 0.00 0.00 0.00 0.00 0.00 0.00 0.00 0.00 0.00 0.00 0.00 0.00 0.00 0.00 0.00 0.00
0.01 0.01 0.01 0.01 0.00 0.01 0.01 0.01 0.00 0.01 0.01 0.01 0.01 0.01 0.01 0.00 0.00 0.00 0.00 0.00 0.00 0.00 0.00 0.00 0.00 0.00 0.00 0.00 0.00 0.00 0.00 0.00 0.00 0.00 0.00 0.00 0.00 0.00 0.00 0.00 0.00 0.00 0.00
0.01 0.01 0.00 0.01 0.01 0.01 0.01 0.01 0.00 0.00 0.00 0.01 0.01 0.01 0.00 0.00 0.00 0.01 0.01 0.00 0.00 0.00 0.00 0.00 0.00 0.00 0.00 0.00 0.00 0.00 0.00 0.00 0.00 0.00 0.00 0.00 0.00 0.00 0.00 0.00 0.00 0.00 0.00
0.01 0.00 0.00 0.01 0.01 0.01 0.01 0.01 0.01 0.00 0.00 0.00 0.00 0.00 0.01 0.00 0.00 0.00 0.00 0.00 0.00 0.00 0.00 0.00 0.00 0.00 0.00 0.00 0.00 0.00 0.00 0.00 0.00 0.00 0.00 0.00 0.00 0.00 0.00 0.00 0.00 0.00 0.00
0.02 0.02 0.02 0.01 0.01 0.01 0.01 0.01 0.00 0.00 0.00 0.00 0.00 0.00 0.00 0.00 0.00 0.00 0.00 0.00 0.00 0.00 0.00 0.00 0.00 0.00 0.00 0.00 0.00 0.00 0.00 0.00 0.00 0.00 0.00 0.00 0.00 0.00 0.00 0.00 0.00 0.00 0.00
0.03 0.03 0.03 0.02 0.02 0.01 0.01 0.01 0.00 0.00 0.00 0.00 0.00 0.00 0.00 0.00 0.00 0.00 0.00 0.00 0.00 0.00 0.00 0.00 0.00 0.00 0.00 0.00 0.00 0.00 0.00 0.00 0.00 0.00 0.00 0.00 0.00 0.00 0.00 0.00 0.00 0.00 0.00
0.04 0.04 0.04 0.03 0.03 0.02 0.02 0.02 0.01 0.01 0.01 0.01 0.01 0.01 0.01 0.01 0.01 0.01 0.01 0.01 0.01 0.01 0.00 0.00 0.00 0.00 0.00 0.00 0.00 0.00 0.00 0.00 0.00 0.00 0.00 0.00 0.00 0.00 0.00 0.00 0.00 0.00 0.00
0.09 0.06 0.06 0.05 0.05 0.04 0.04 0.03 0.03 0.02 0.02 0.01 0.01 0.01 0.01 0.01 0.02 0.02 0.02 0.02 0.01 0.01 0.01 0.01 0.01 0.00 0.00 0.00 0.00 0.00 0.00 0.00 0.00 0.00 0.00 0.00 0.00 0.00 0.00 0.00 0.00 0.00 0.00
0.11 0.10 0.09 0.08 0.08 0.08 0.08 0.07 0.07 0.06 0.04 0.03 0.02 0.01 0.01 0.01 0.01 0.01 0.01 0.02 0.01 0.02 0.02 0.02 0.01 0.01 0.00 0.00 0.01 0.00 0.00 0.00 0.00 0.00 0.00 0.00 0.00 0.00 0.00 0.00 0.00 0.00 0.00
0.11 0.11 0.11 0.11 0.12 0.14 0.16 0.16 0.15 0.12 0.09 0.07 0.05 0.04 0.02 0.02 0.02 0.02 0.01 0.01 0.00 0.00 0.01 0.01 0.01 0.01 0.00 0.00 0.01 0.01 0.01 0.01 0.00 0.00 0.00 0.00 0.00 0.00 0.00 0.00 0.00 0.00 0.00
0.08 0.08 0.08 0.12 0.14 0.15 0.17 0.16 0.16 0.14 0.13 0.13 0.11 0.08 0.05 0.04 0.04 0.04 0.03 0.02 0.01 0.01 0.01 0.01 0.01 0.01 0.01 0.01 0.01 0.01 0.01 0.01 0.01 0.00 0.00 0.00 0.00 0.00 0.00 0.00 0.00 0.00 0.00
MSLP
1017.40 1017.51 1017.52 1017.49 1017.44 1017.41 1017.41 1017.47 1017.55 1017.67 1017.78 1017.90 1018.00 1018.10 1018.21 1018.34 1018.51 1018.70 1018.92 1019.15 1019.37 1019.58 1019.76 1019.92 1020.08 1020.23 1020.40 1020.59 1020.80 1021.02 1021.24 1021.45 1021.65 1021.83 1022.00 1022.17 1022.36 1022.55 1022.76 1022.97 1023.18 1023.37 1023.53
1017.55 1017.67 1017.70 1017.68 1017.65 1017.63 1017.65 1017.71 1017.82 1017.95 1018.10 1018.23 1018.36 1018.46 1018.56 1018.66 1018.78 1018.92 1019.08 1019.26 1019.44 1019.63 1019.82 1020.00 1020.18 1020.35 1020.53 1020.71 1020.90 1021.08 1021.27 1021.45 1021.62 1021.80 1021.98 1022.17 1022.37 1022.58 1022.81 1023.03 1023.24 1023.42 1023.58
1017.65 1017.80 1017.87 1017.89 1017.89 1017.91 1017.95 1018.04 1018.17 1018.33 1018.50 1018.66 1018.80 1018.92 1019.00 1019.07 1019.14 1019.21 1019.30 1019.40 1019.53 1019.68 1019.85 1020.02 1020.20 1020.39 1020.56 1020.74 1020.90 1021.06 1021.21 1021.36 1021.52 1021.68 1021.87 1022.07 1022.29 1022.53 1022.76 1022.99 1023.20 1023.39 1023.56
1017.71 1017.90 1018.03 1018.11 1018.17 1018.23 1018.31 1018.43 1018.59 1018.77 1018.96 1019.14 1019.29 1019.41 1019.49 1019.53 1019.55 1019.55 1019.57 1019.60 1019.65 1019.74 1019.87 1020.01 1020.18 1020.35 1020.52 1020.68 1020.83 1020.97 1021.10 1021.23 1021.37 1021.53 1021.71 1021.92 1022.15 1022.39 1022.64 1022.87 1023.08 1023.27 1023.44
1017.76 1017.99 1018.18 1018.32 1018.45 1018.56 1018.69 1018.83 1019.00 1019.19 1019.39 1019.58 1019.75 1019.88 1019.96 1019.98 1019.97 1019.93 1019.87 1019.83 1019.82 1019.84 1019.91 1020.01 1020.15 1020.30 1020.46 1020.60 1020.74 1020.86 1020.97 1021.09 1021.22 1021.37 1021.55 1021.75 1021.98 1022.22 1022.46 1022.68 1022.89 1023.07 1023.24
1017.82 1018.09 1018.32 1018.53 1018.71 1018.87 1019.03 1019.20 1019.37 1019.56 1019.76 1019.96 1020.14 1020.28 1020.37 1020.40 1020.38 1020.31 1020.22 1020.12 1020.04 1020.00 1020.01 1020.06 1020.16 1020.29 1020.42 1020.56 1020.69 1020.80 1020.90 1021.01 1021.13 1021.27 1021.43 1021.63 1021.84 1022.05 1022.27 1022.47 1022.65 1022.81 1022.97
1017.90 1018.18 1018.45 1018.71 1018.94 1019.14 1019.32 1019.49 1019.66 1019.84 1020.04 1020.23 1020.42 1020.59 1020.71 1020.77 1020.76 1020.70 1020.59 1020.46 1020.34 1020.25 1020.20 1020.21 1020.26 1020.36 1020.47 1020.59 1020.71 1020.82 1020.92 1021.02 1021.13 1021.26 1021.41 1021.57 1021.75 1021.93 1022.11 1022.26 1022.40 1022.53 1022.65
1017.99 1018.27 1018.57 1018.86 1019.12 1019.35 1019.54 1019.71 1019.87 1020.03 1020.21 1020.41 1020.61 1020.81 1020.97 1021.07 1021.11 1021.07 1020.98 1020.84 1020.70 1020.57 1020.48 1020.44 1020.46 1020.52 1020.61 1020.71 1020.82 1020.93 1021.03 1021.12 1021.23 1021.34 1021.47 1021.60 1021.74 1021.87 1021.99 1022.09 1022.18 1022.25 1022.33
1018.06 1018.35 1018.66 1018.97 1019.25 1019.50 1019.70 1019.86 1020.00 1020.14 1020.31 1020.51 1020.73 1020.95 1021.16 1021.32 1021.41 1021.42 1021.36 1021.24 1021.09 1020.94 1020.82 1020.74 1020.71 1020.74 1020.80 1020.89 1020.99 1021.09 1021.18 1021.28 1021.37 1021.47 1021.58 1021.68 1021.78 1021.87 1021.93 1021.97 1021.99 1022.00 1022.01
1018.09 1018.38 1018.70 1019.03 1019.33 1019.59 1019.80 1019.95 1020.08 1020.20 1020.36 1020.55 1020.78 1021.04 1021.29 1021.50 1021.65 1021.72 1021.69 1021.60 1021.46 1021.29 1021.15 1021.03 1020.97 1020.96 1020.99 1021.05 1021.14 1021.23 1021.32 1021.41 1021.50 1021.59 1021.68 1021.76 1021.83 1021.87 1021.88 1021.87 1021.83 1021.77 1021.73
1018.06 1018.35 1018.69 1019.04 1019.37 1019.64 1019.86 1020.01 1020.13 1020.24 1020.38 1020.57 1020.81 1021.09 1021.37 1021.63 1021.82 1021.93 1021.95 1021.88 1021.74 1021.57 1021.40 1021.26 1021.16 1021.11 1021.11 1021.15 1021.21 1021.29 1021.37 1021.46 1021.55 1021.63 1021.71 1021.78 1021.82 1021.84 1021.82 1021.76 1021.68 1021.58 1021.48
1017.93 1018.25 1018.61 1018.99 1019.35 1019.65 1019.87 1020.03 1020.15 1020.26 1020.39 1020.57 1020.81 1021.09 1021.39 1021.68 1021.90 1022.04 1022.08 1022.03 1021.90 1021.73 1021.54 1021.37 1021.24 1021.16 1021.12 1021.13 1021.17 1021.23 1021.30 1021.38 1021.46 1021.55 1021.62 1021.69 1021.73 1021.74 1021.71 1021.63 1021.52 1021.39 1021.25
1017.73 1018.07 1018.47 1018.89 1019.28 1019.60 1019.85 1020.02 1020.15 1020.25 1020.38 1020.55 1020.78 1021.06 1021.36 1021.65 1021.88 1022.04 1022.09 1022.05 1021.93 1021.75 1021.56 1021.37 1021.21 1021.10 1021.03 1021.01 1021.02 1021.06 1021.11 1021.18 1021.25 1021.33 1021.41 1021.48 1021.52 1021.54 1021.52 1021.45 1021.34 1021.20 1021.05
1017.46 1017.84 1018.27 1018.72 1019.14 1019.49 1019.77 1019.96 1020.09 1020.20 1020.33 1020.49 1020.71 1020.97 1021.26 1021.54 1021.77 1021.93 1021.99 1021.95 1021.84 1021.67 1021.47 1021.28 1021.11 1020.98 1020.89 1020.84 1020.82 1020.83 1020.86 1020.90 1020.96 1021.02 1021.10 1021.17 1021.22 1021.25 1021.25 1021.20 1021.11 1020.99 1020.84
1017.14 1017.55 1018.01 1018.48 1018.93 1019.31 1019.61 1019.82 1019.97 1020.10 1020.22 1020.38 1020.58 1020.83 1021.10 1021.36 1021.59 1021.74 1021.80 1021.78 1021.68 1021.52 1021.34 1021.16 1020.99 1020.85 1020.74 1020.67 1020.63 1020.60 1020.60 1020.61 1020.63 1020.68 1020.73 1020.80 1020.85 1020.90 1020.91 1020.89 1020.83 1020.74 1020.61
1016.78 1017.21 1017.68 1018.17 1018.63 1019.03 1019.35 1019.59 1019.76 1019.90 1020.04 1020.20 1020.39 1020.63 1020.88 1021.13 1021.34 1021.50 1021.57 1021.56 1021.49 1021.36 1021.21 1021.05 1020.90 1020.76 1020.66 1020.57 1020.50 1020.44 1020.39 1020.36 1020.35 1020.35 1020.37 1020.41 1020.46 1020.50 1020.52 1020.52 1020.49 1020.43 1020.34
1016.40 1016.82 1017.30 1017.78 1018.25 1018.66 1018.99 1019.25 1019.45 1019.60 1019.75 1019.92 1020.12 1020.34 1020.59 1020.83 1021.04 1021.20 1021.29 1021.32 1021.28 1021.20 1021.09 1020.96 1020.84 1020.73 1020.63 1020.54 1020.45 1020.36 1020.27 1020.19 1020.12 1020.07 1020.04 1020.04 1020.05 1020.07 1020.09 1020.09 1020.08 1020.04 1019.99
1015.98 1016.38 1016.84 1017.31 1017.77 1018.18 1018.52 1018.80 1019.02 1019.19 1019.36 1019.54 1019.74 1019.97 1020.21 1020.44 1020.66 1020.83 1020.95 1021.01 1021.02 1020.99 1020.93 1020.86 1020.78 1020.71 1020.62 1020.53 1020.43 1020.32 1020.19 1020.06 1019.93 1019.82 1019.74 1019.67 1019.63 1019.62 1019.61 1019.60 1019.59 1019.57 1019.54
1015.52 1015.89 1016.32 1016.77 1017.21 1017.61 1017.96 1018.24 1018.48 1018.67 1018.85 1019.03 1019.23 1019.46 1019.69 1019.93 1020.15 1020.34 1020.48 1020.58 1020.64 1020.67 1020.67 1020.65 1020.63 1020.59 1020.53 1020.46 1020.36 1020.23 1020.07 1019.90 1019.73 1019.56 1019.42 1019.29 1019.20 1019.13 1019.08 1019.04 1019.02 1018.99 1018.98
1015.00 1015.35 1015.74 1016.17 1016.59 1016.98 1017.32 1017.61 1017.84 1018.04 1018.22 1018.40 1018.59 1018.79 1019.02 1019.24 1019.46 1019.66 1019.83 1019.96 1020.06 1020.14 1020.20 1020.24 1020.27 1020.28 1020.26 1020.21 1020.12 1019.99 1019.83 1019.65 1019.44 1019.24 1019.04 1018.87 1018.72 1018.59 1018.50 1018.42 1018.36 1018.33 1018.31
1014.46 1014.78 1015.15 1015.55 1015.95 1016.32 1016.65 1016.92 1017.14 1017.32 1017.48 1017.63 1017.79 1017.97 1018.16 1018.36 1018.56 1018.76 1018.93 1019.09 1019.24 1019.36 1019.47 1019.56 1019.64 1019.70 1019.72 1019.71 1019.65 1019.55 1019.40 1019.22 1019.01 1018.79 1018.57 1018.36 1018.17 1018.00 1017.86 1017.74 1017.65 1017.59 1017.55
1013.94 1014.24 1014.59 1014.97 1015.34 1015.69 1016.00 1016.24 1016.43 1016.57 1016.68 1016.77 1016.88 1017.00 1017.14 1017.29 1017.46 1017.64 1017.81 1017.99 1018.15 1018.31 1018.47 1018.61 1018.74 1018.84 1018.91 1018.95 1018.93 1018.87 1018.76 1018.60 1018.41 1018.20 1017.99 1017.77 1017.56 1017.36 1017.19 1017.03 1016.91 1016.81 1016.75
1013.50 1013.79 1014.13 1014.49 1014.84 1015.16 1015.42 1015.62 1015.75 1015.83 1015.86 1015.88 1015.90 1015.94 1016.01 1016.10 1016.23 1016.37 1016.53 1016.71 1016.89 1017.08 1017.27 1017.45 1017.62 1017.77 1017.89 1017.98 1018.02 1018.01 1017.94 1017.84 1017.69 1017.51 1017.32 1017.11 1016.90 1016.70 1016.50 1016.32 1016.16 1016.04 1015.95
1013.23 1013.51 1013.83 1014.17 1014.50 1014.78 1014.99 1015.12 1015.18 1015.17 1015.12 1015.04 1014.96 1014.91 1014.89 1014.91 1014.98 1015.08 1015.22 1015.39 1015.58 1015.79 1016.01 1016.22 1016.43 1016.62 1016.79 1016.92 1017.01 1017.05 1017.04 1016.99 1016.90 1016.77 1016.61 1016.42 1016.23 1016.03 1015.82 1015.63 1015.45 1015.29 1015.17
1013.17 1013.45 1013.76 1014.08 1014.36 1014.60 1014.75 1014.81 1014.78 1014.67 1014.52 1014.34 1014.16 1014.01 1013.91 1013.86 1013.86 1013.93 1014.04 1014.20 1014.40 1014.61 1014.85 1015.09 1015.32 1015.54 1015.74 1015.91 1016.03 1016.12 1016.16 1016.15 1016.11 1016.02 1015.89 1015.74 1015.57 1015.37 1015.17 1014.96 1014.76 1014.58 1014.43
1013.36 1013.63 1013.93 1014.21 1014.45 1014.63 1014.71 1014.69 1014.58 1014.38 1014.14 1013.86 1013.60 1013.36 1013.18 1013.06 1013.02 1013.05 1013.13 1013.28 1013.46 1013.68 1013.92 1014.17 1014.41 1014.64 1014.85 1015.04 1015.19 1015.29 1015.36 1015.39 1015.37 1015.31 1015.21 1015.08 1014.92 1014.73 1014.52 1014.31 1014.09 1013.89 1013.72
Thickness
5727 5726 5724 5723 5723 5722 5722 5721 5721 5721 5720 5720 5719 5719 5717 5716 5715 5714 5713 5712 5711 5710 5709 5708 5707 5707 5706 5706 5705 5705 5704 5704 5704 5703 5702 5702 5701 5701 5700 5699 5699 5698 5698
5726 5724 5722 5721 5721 5720 5720 5719 5719 5719 5718 5718 5718 5717 5715 5714 5713 5712 5711 5710 5710 5709 5708 5707 5706 5705 5704 5704 5704 5703 5702 5702 5702 5701 5701 5700 5700 5699 5699 5698 5697 5697 5696
5724 5723 5721 5720 5719 5719 5718 5718 5717 5717 5716 5716 5715 5714 5713 5712 5711 5710 5709 5708 5708 5708 5707 5706 5705 5704 5703 5703 5703 5702 5701 5701 5700 5700 5699 5699 5699 5698 5697 5697 5696 5695 5695
5723 5721 5720 5718 5718 5717 5716 5716 5715 5714 5713 5713 5712 5712 5711 5710 5709 5708 5708 5707 5707 5706 5706 5705 5704 5704 5703 5702 5702 5701 5700 5699 5699 5698 5698 5697 5697 5696 5696 5695 5695 5694 5694
5722 5720 5719 5717 5717 5715 5715 5714 5712 5712 5710 5710 5710 5709 5709 5708 5708 5707 5707 5706 5705 5705 5705 5704 5704 5703 5702 5702 5701 5700 5699 5698 5698 5697 5697 5696 5695 5695 5694 5694 5694 5693 5693
5720 5719 5717 5716 5715 5714 5713 5712 5710 5709 5708 5708 5708 5706 5706 5706 5706 5705 5705 5705 5704 5704 5704 5703 5703 5702 5701 5701 5700 5699 5698 5697 5697 5696 5695 5695 5694 5693 5693 5693 5692 5692 5691
5719 5718 5716 5715 5714 5713 5712 5711 5709 5708 5706 5706 5704 5702 5702 5703 5704 5703 5703 5703 5703 5703 5703 5702 5702 5701 5700 5700 5699 5698 5697 5697 5696 5695 5694 5694 5693 5692 5692 5691 5691 5691 5690
5717 5717 5715 5714 5713 5712 5710 5710 5709 5706 5704 5704 5702 5698 5695 5697 5700 5701 5701 5702 5701 5701 5701 5701 5700 5700 5699 5698 5698 5697 5697 5696 5695 5694 5693 5693 5692 5691 5690 5690 5690 5689 5689
5715 5715 5714 5713 5712 5711 5710 5709 5708 5707 5703 5702 5702 5700 5694 5691 5693 5697 5698 5698 5699 5699 5699 5699 5699 5699 5698 5697 5696 5696 5696 5695 5694 5693 5692 5691 5691 5690 5690 5689 5689 5689 5688
5714 5714 5713 5712 5711 5710 5709 5708 5708 5707 5705 5702 5700 5700 5699 5697 5693 5691 5694 5696 5697 5697 5697 5698 5697 5697 5696 5696 5695 5695 5694 5693 5692 5691 5691 5690 5689 5689 5689 5688 5688 5688 5688
5712 5713 5712 5712 5711 5710 5709 5708 5707 5707 5706 5703 5701 5699 5697 5695 5695 5692 5690 5692 5694 5695 5696 5695 5695 5695 5695 5694 5693 5693 5692 5691 5690 5689 5689 5688 5687 5687 5688 5687 5687 5687 5687
5711 5711 5711 5711 5710 5709 5709 5708 5707 5706 5705 5704 5702 5701 5699 5697 5694 5692 5689 5688 5689 5691 5693 5693 5693 5693 5692 5692 5691 5691 5690 5689 5688 5687 5686 5685 5685 5685 5686 5686 5685 5685 5685
5710 5711 5711 5710 5710 5709 5708 5707 5706 5705 5704 5703 5702 5701 5700 5699 5697 5694 5691 5688 5687 5688 5689 5692 5692 5691 5690 5690 5689 5688 5687 5686 5685 5684 5683 5683 5683 5683 5683 5683 5683 5684 5684
5712 5712 5711 5710 5709 5709 5707 5706 5705 5704 5703 5702 5702 5700 5698 5697 5696 5695 5692 5688 5685 5685 5686 5688 5690 5690 5689 5688 5687 5686 5685 5684 5683 5682 5681 5681 5680 5680 5680 5681 5681 5681 5681
5713 5712 5710 5709 5708 5707 5706 5704 5703 5702 5701 5700 5699 5698 5697 5696 5694 5693 5692 5690 5686 5682 5682 5685 5686 5688 5687 5686 5685 5684 5683 5682 5681 5680 5680 5679 5679 5678 5678 5678 5678 5678 5678
5712 5711 5709 5708 5707 5706 5704 5702 5701 5700 5699 5698 5696 5695 5694 5693 5692 5691 5689 5688 5686 5683 5680 5682 5682 5684 5684 5684 5683 5682 5681 5680 5680 5679 5678 5677 5677 5676 5676 5676 5675 5675 5675
5712 5710 5708 5706 5705 5704 5703 5700 5699 5698 5696 5695 5694 5692 5691 5690 5688 5688 5686 5684 5682 5681 5679 5679 5678 5680 5680 5680 5680 5679 5679 5678 5678 5678 5677 5676 5676 5675 5674 5674 5674 5673 5673
5712 5710 5708 5706 5705 5703 5701 5699 5697 5696 5694 5693 5691 5689 5688 5687 5685 5684 5682 5681 5679 5677 5676 5675 5675 5676 5676 5677 5677 5676 5676 5676 5676 5676 5675 5675 5674 5674 5673 5673 5672 5671 5671
5711 5709 5706 5705 5703 5702 5699 5697 5695 5693 5692 5690 5689 5687 5685 5683 5681 5680 5678 5677 5676 5674 5672 5671 5671 5671 5671 5671 5671 5672 5672 5672 5673 5673 5673 5673 5672 5672 5671 5671 5670 5670 5669
5709 5707 5705 5704 5702 5700 5698 5695 5693 5690 5688 5687 5685 5684 5682 5680 5678 5677 5675 5673 5672 5670 5668 5666 5666 5666 5665 5665 5665 5665 5667 5667 5668 5669 5669 5669 5669 5668 5668 5668 5667 5667 5666
5707 5705 5703 5701 5699 5697 5695 5692 5690 5687 5685 5682 5681 5679 5678 5677 5675 5673 5671 5669 5667 5665 5663 5661 5661 5661 5661 5659 5659 5660 5660 5662 5663 5663 5664 5665 5664 5664 5664 5663 5663 5663 5663
5704 5701 5699 5697 5695 5694 5692 5688 5685 5683 5680 5677 5675 5673 5672 5671 5670 5669 5667 5665 5663 5661 5659 5657 5656 5656 5657 5656 5655 5654 5653 5653 5655 5659 5656 5659 5658 5658 5659 5659 5659 5659 5659
5699 5697 5695 5693 5691 5690 5688 5684 5681 5678 5675 5673 5670 5668 5666 5666 5664 5663 5661 5660 5658 5656 5655 5653 5652 5652 5651 5651 5649 5647 5646 5646 5648 5650 5648 5652 5653 5653 5654 5655 5655 5655 5654
5694 5693 5690 5689 5686 5685 5681 5678 5675 5672 5670 5667 5665 5662 5660 5659 5658 5656 5654 5652 5651 5650 5648 5646 5646 5646 5645 5644 5642 5641 5641 5640 5642 5642 5640 5642 5647 5648 5650 5650 5650 5650 5649
5690 5688 5685 5683 5680 5678 5675 5672 5668 5665 5663 5661 5658 5656 5654 5652 5651 5647 5645 5644 5643 5643 5641 5639 5639 5638 5637 5635 5633 5631 5630 5630 5634 5637 5634 5633 5639 5640 5643 5645 5645 5643 5643
5683 5681 5678 5675 5672 5669 5667 5664 5661 5658 5655 5653 5650 5648 5646 5644 5642 5638 5636 5635 5634 5634 5631 5630 5629 5629 5628 5626 5624 5622 5622 5621 5623 5627 5628 5624 5628 5627 5632 5638 5636 5635 5634